ONEWEB-0040 (45147 NORAD) Tracking and Keplerian Element Data

This shows tracking and keplerian element data for the satellite.

Feedback or suggestion? Click here.




ElementValue
Catalog45147
NameONEWEB-0040
Epoch Orbit827
Epoch Day87.24323243
Epoch Year2020
RAAN147.5899
Inclination87.3802
Eccentricity0.0023166
Argument of Perigee125.9211
Mean Anonmoly234.4166
Mean Motion14.82066652
Decay Rate-0.00300169
L11 45147U 20008S 20087.24323243 -.00300169 00000-0 -39300-1 0 9998
L22 45147 87.3802 147.5899 0023166 125.9211 234.4166 14.82066652 8276

Live tracking and technical data element details for ONEWEB-0040 (NORAD 45147). ONEWEB-0040 can be tracked NOW for your location showing map with azimuth and elevation plus other details from your city location.

Track the satellite on the map from your city or location and see movement details for azimuth, elevation, latitude, longitude, range, height, and movement on the map or in text.







IsCatalogInMostPopularTable: catalog: 45147, numindb: 12
Update: records affected: 1



GetName: 45147 ONEWEB-0040

Hit Count: updated at: Sat, 28 Mar 2020 21:40:29 GMT